• în Republica Moldova
  • Lista ţărilor
  • Pe 7 zile
  • Temperatura apei
  • Hartă satelitară
  • Meteo pe hartă
  • Widget-uri
  • user-avatar
    Intrare

    Meteo pe oră la Perth

    Astăzi, 22 Septembrie, Vineri

    Timp Temperatura Precipitaţii Vânt Presiune Umiditate
    00:00 +14°C° 0,2 mm 7 m/s 753 mmHg 78%
    01:00 +14°C° 0,2 mm 7 m/s 752 mmHg 78%
    02:00 +15°C° 0 mm 7 m/s 751 mmHg 79%
    03:00 +15°C° 0,3 mm 7 m/s 751 mmHg 79%
    04:00 +15°C° 0,3 mm 8 m/s 751 mmHg 79%
    05:00 +15°C° 0,3 mm 8 m/s 750 mmHg 79%
    06:00 +15°C° 0,9 mm 9 m/s 750 mmHg 80%
    07:00 +14°C° 0,9 mm 10 m/s 750 mmHg 80%
    08:00 +14°C° 0,9 mm 11 m/s 750 mmHg 80%
    09:00 +14°C° 1,4 mm 11 m/s 750 mmHg 79%
    10:00 +14°C° 1,4 mm 11 m/s 750 mmHg 78%
    11:00 +14°C° 1,4 mm 11 m/s 750 mmHg 77%
    12:00 +16°C° 0,5 mm 11 m/s 750 mmHg 72%
    13:00 +15°C° 0,5 mm 12 m/s 750 mmHg 68%
    14:00 +17°C° 0,5 mm 13 m/s 751 mmHg 63%
    15:00 +17°C° 0,3 mm 12 m/s 751 mmHg 64%
    16:00 +16°C° 0,3 mm 11 m/s 752 mmHg 65%
    17:00 +16°C° 0,3 mm 10 m/s 752 mmHg 65%
    18:00 +15°C° 0,2 mm 9 m/s 753 mmHg 69%
    19:00 +15°C° 0,2 mm 8 m/s 754 mmHg 73%
    20:00 +14°C° 0,2 mm 7 m/s 754 mmHg 77%
    21:00 +13°C° 0,3 mm 6 m/s 755 mmHg 79%
    22:00 +13°C° 0,3 mm 6 m/s 755 mmHg 81%
    23:00 +13°C° 0,3 mm 6 m/s 756 mmHg 83%

    Mâine, 23 Septembrie, Sâmbătă

    Timp Temperatura Precipitaţii Vânt Presiune Umiditate
    00:00 +13°C° 0,2 mm 6 m/s 756 mmHg 83%
    01:00 +11°C° 0,2 mm 6 m/s 756 mmHg 83%
    02:00 +11°C° 0,2 mm 6 m/s 756 mmHg 83%
    03:00 +11°C° 0,1 mm 6 m/s 756 mmHg 82%
    04:00 +12°C° 0,1 mm 5 m/s 757 mmHg 81%
    05:00 +10°C° 0,1 mm 5 m/s 757 mmHg 80%
    06:00 +12°C° 0,1 mm 5 m/s 757 mmHg 77%
    07:00 +13°C° 0,1 mm 5 m/s 757 mmHg 75%
    08:00 +14°C° 0,1 mm 5 m/s 758 mmHg 72%
    09:00 +15°C° 0,3 mm 5 m/s 758 mmHg 71%
    10:00 +15°C° 0,3 mm 6 m/s 758 mmHg 70%
    11:00 +16°C° 0,3 mm 6 m/s 758 mmHg 68%
    12:00 +16°C° 0,1 mm 6 m/s 757 mmHg 63%
    13:00 +17°C° 0,1 mm 6 m/s 757 mmHg 59%
    14:00 +17°C° 0,1 mm 6 m/s 757 mmHg 54%
    15:00 +16°C° 0,1 mm 6 m/s 757 mmHg 56%
    16:00 +16°C° 0,1 mm 6 m/s 757 mmHg 59%
    17:00 +15°C° 0,1 mm 5 m/s 757 mmHg 62%
    18:00 +14°C° 0,1 mm 5 m/s 757 mmHg 67%
    19:00 +13°C° 0,1 mm 4 m/s 758 mmHg 72%
    20:00 +12°C° 0,1 mm 3 m/s 758 mmHg 77%
    21:00 +11°C° 0,2 mm 3 m/s 758 mmHg 78%
    22:00 +12°C° 0,2 mm 2 m/s 758 mmHg 79%
    23:00 +11°C° 0,2 mm 1 m/s 758 mmHg 81%

    Poimâine, 24 Septembrie, Duminică

    Timp Temperatura Precipitaţii Vânt Presiune Umiditate
    00:00 +12°C° 0,4 mm 1 m/s 757 mmHg 83%
    01:00 +12°C° 0,4 mm 1 m/s 757 mmHg 85%
    02:00 +12°C° 0,4 mm 1 m/s 756 mmHg 86%
    03:00 +10°C° 0,5 mm 2 m/s 756 mmHg 88%
    04:00 +10°C° 0,5 mm 2 m/s 756 mmHg 90%
    05:00 +10°C° 0,5 mm 2 m/s 755 mmHg 91%
    06:00 +10°C° 0,6 mm 3 m/s 756 mmHg 91%
    07:00 +11°C° 0,6 mm 3 m/s 756 mmHg 90%
    08:00 +11°C° 0,6 mm 3 m/s 756 mmHg 90%
    09:00 +12°C° 0,4 mm 3 m/s 756 mmHg 83%
    10:00 +14°C° 0,4 mm 3 m/s 756 mmHg 77%
    11:00 +16°C° 0,4 mm 2 m/s 755 mmHg 71%
    12:00 +17°C° 0,3 mm 2 m/s 755 mmHg 66%
    13:00 +18°C° 0,3 mm 2 m/s 754 mmHg 62%
    14:00 +19°C° 0,3 mm 2 m/s 753 mmHg 57%
    15:00 +18°C° 0,2 mm 3 m/s 753 mmHg 61%
    16:00 +18°C° 0,2 mm 3 m/s 753 mmHg 65%
    17:00 +17°C° 0,2 mm 3 m/s 753 mmHg 69%
    18:00 +16°C° 0,8 mm 3 m/s 753 mmHg 74%
    19:00 +14°C° 0,8 mm 3 m/s 754 mmHg 80%
    20:00 +13°C° 0,8 mm 3 m/s 754 mmHg 85%
    21:00 +12°C° 0,2 mm 3 m/s 754 mmHg 84%
    22:00 +12°C° 0,2 mm 3 m/s 754 mmHg 83%
    23:00 +12°C° 0,2 mm 2 m/s 754 mmHg 83%

    25 Septembrie, Luni

    Timp Temperatura Precipitaţii Vânt Presiune Umiditate
    00:00 +12°C° 0,3 mm 2 m/s 754 mmHg 84%
    01:00 +10°C° 0,3 mm 2 m/s 754 mmHg 85%
    02:00 +10°C° 0,3 mm 2 m/s 753 mmHg 87%
    03:00 +10°C° 0,6 mm 2 m/s 753 mmHg 88%
    04:00 +10°C° 0,6 mm 2 m/s 753 mmHg 89%
    05:00 +9°C° 0,6 mm 2 m/s 753 mmHg 90%
    06:00 +10°C° 0,5 mm 2 m/s 753 mmHg 90%
    07:00 +10°C° 0,5 mm 2 m/s 753 mmHg 89%
    08:00 +12°C° 0,5 mm 2 m/s 754 mmHg 89%
    09:00 +12°C° 0,3 mm 3 m/s 753 mmHg 86%
    10:00 +13°C° 0,3 mm 3 m/s 753 mmHg 82%
    11:00 +14°C° 0,3 mm 4 m/s 753 mmHg 78%
    12:00 +14°C° 0,9 mm 3 m/s 752 mmHg 79%
    13:00 +14°C° 0,9 mm 3 m/s 751 mmHg 80%
    14:00 +14°C° 0,9 mm 3 m/s 750 mmHg 82%
    15:00 +13°C° 1,3 mm 3 m/s 750 mmHg 83%
    16:00 +13°C° 1,3 mm 3 m/s 750 mmHg 84%
    17:00 +13°C° 1,3 mm 3 m/s 750 mmHg 85%
    18:00 +12°C° 0,7 mm 3 m/s 751 mmHg 88%
    19:00 +11°C° 0,7 mm 3 m/s 751 mmHg 90%
    20:00 +11°C° 0,7 mm 3 m/s 752 mmHg 92%
    21:00 +10°C° 0,1 mm 3 m/s 751 mmHg 92%
    22:00 +10°C° 0,1 mm 3 m/s 751 mmHg 92%
    23:00 +10°C° 0,1 mm 3 m/s 751 mmHg 92%

    26 Septembrie, Marţi

    Timp Temperatura Precipitaţii Vânt Presiune Umiditate
    00:00 +9°C° 0,2 mm 3 m/s 751 mmHg 92%
    01:00 +9°C° 0,2 mm 3 m/s 750 mmHg 91%
    02:00 +8°C° 0,2 mm 3 m/s 750 mmHg 91%
    03:00 +8°C° 0,1 mm 3 m/s 750 mmHg 91%
    04:00 +8°C° 0,1 mm 3 m/s 750 mmHg 91%
    05:00 +8°C° 0,1 mm 3 m/s 750 mmHg 90%
    06:00 +9°C° 0 mm 3 m/s 751 mmHg 89%
    07:00 +10°C° 0 mm 3 m/s 751 mmHg 87%
    08:00 +11°C° 0 mm 3 m/s 751 mmHg 86%
    09:00 +13°C° 0,1 mm 3 m/s 751 mmHg 79%
    10:00 +15°C° 0,1 mm 2 m/s 751 mmHg 71%
    11:00 +17°C° 0,1 mm 2 m/s 751 mmHg 64%
    12:00 +18°C° 0,5 mm 2 m/s 751 mmHg 65%
    13:00 +18°C° 0,5 mm 2 m/s 750 mmHg 65%
    14:00 +18°C° 0,5 mm 3 m/s 750 mmHg 65%
    15:00 +18°C° 0,7 mm 3 m/s 750 mmHg 69%
    16:00 +17°C° 0,7 mm 4 m/s 750 mmHg 72%
    17:00 +17°C° 0,7 mm 4 m/s 750 mmHg 76%
    18:00 +15°C° 0,2 mm 4 m/s 751 mmHg 78%
    19:00 +14°C° 0,2 mm 4 m/s 752 mmHg 81%
    20:00 +13°C° 0,2 mm 4 m/s 752 mmHg 83%
    21:00 +12°C° 0 mm 4 m/s 753 mmHg 84%
    22:00 +12°C° 0 mm 3 m/s 753 mmHg 86%
    23:00 +11°C° 0 mm 3 m/s 753 mmHg 87%

    27 Septembrie, Miercuri

    Timp Temperatura Precipitaţii Vânt Presiune Umiditate
    00:00 +11°C° 0 mm 3 m/s 753 mmHg 88%
    01:00 +11°C° 0 mm 3 m/s 753 mmHg 89%
    02:00 +11°C° 0 mm 3 m/s 753 mmHg 90%
    03:00 +10°C° 0 mm 3 m/s 754 mmHg 90%
    04:00 +10°C° 0 mm 3 m/s 754 mmHg 91%
    05:00 +10°C° 0 mm 3 m/s 754 mmHg 91%
    06:00 +11°C° 0,1 mm 4 m/s 755 mmHg 89%
    07:00 +12°C° 0,1 mm 5 m/s 756 mmHg 88%
    08:00 +13°C° 0,1 mm 5 m/s 756 mmHg 86%
    09:00 +14°C° 0,1 mm 5 m/s 757 mmHg 82%
    10:00 +15°C° 0,1 mm 5 m/s 757 mmHg 77%
    11:00 +16°C° 0,1 mm 5 m/s 757 mmHg 73%
    12:00 +17°C° 0,2 mm 5 m/s 757 mmHg 71%
    13:00 +17°C° 0,2 mm 5 m/s 757 mmHg 70%
    14:00 +19°C° 0,2 mm 6 m/s 757 mmHg 68%
    15:00 +17°C° 0,1 mm 6 m/s 758 mmHg 70%
    16:00 +17°C° 0,1 mm 6 m/s 758 mmHg 71%
    17:00 +17°C° 0,1 mm 6 m/s 758 mmHg 73%
    18:00 +15°C° 0,1 mm 5 m/s 759 mmHg 78%
    19:00 +14°C° 0,1 mm 5 m/s 760 mmHg 82%
    20:00 +12°C° 0,1 mm 4 m/s 761 mmHg 87%
    21:00 +12°C° 0,1 mm 4 m/s 761 mmHg 88%
    22:00 +11°C° 0,1 mm 3 m/s 761 mmHg 88%
    23:00 +11°C° 0,1 mm 3 m/s 761 mmHg 89%
    Arată mai mult